Location: Doschendorf
(50.0069°N, 11.0602°E)
Time: 02:07:12
(UTC+00:00)

NOAA 12 - Pass Details

Date: 27 February 2020
Orbit: 795 x 815 km, 98.5° (Epoch: 06 April)

Event Time Altitude Azimuth Distance (km) Brightness Sun altitude
Rises 04:27:18 0° 29° (NNE) 3,354 7.8 -16.4°
Reaches altitude 10° 04:30:50 10° 53° (NE) 2,414 7.5 -15.8°
Maximum altitude 04:33:43 15° 86° (E) 2,100 7.5 -15.4°
Drops below altitude 10° 04:36:35 10° 119° (ESE) 2,400 7.4 -14.9°
Sets 04:40:03 0° 143° (SE) 3,322 7.8 -14.3°
